Location: Bieg
(49.3499°N, 10.3835°E)
Time: 16:42:19
(UTC+00:00)

Meteor 1-28 Rocket - Pass Details

Date: 20 December 2025
Orbit: 429 x 441 km, 97.6° (Epoch: 12 January)

Event Time Altitude Azimuth Distance (km) Brightness Sun altitude
Exits shadow 16:31:24 - 11° (N) 2,134 6.0 -10.7°
Reaches altitude 10° 16:32:45 10° 10° (N) 1,558 5.3 -10.9°
Maximum altitude 16:36:04 73° 286° (WNW) 460 3.0 -11.4°
Drops below altitude 10° 16:39:21 10° 201° (SSW) 1,536 6.2 -11.9°
Sets 16:41:20 0° 199° (SSW) 2,396 7.2 -12.2°
